GFSNW_con_lsi_090.txt.gz
Lid_Strength_Index
1 1 0 -0 -0 1 4 7 11 6 5 12 10 12 10 8 8 7 9 9 10 12 12 13 13 14 11 8 9 12 11 13 17 14 11 11 12 14 15 17 19 19 19 18
1 1 1 0 -0 2 7 10 10 6 5 15 14 9 9 8 9 9 9 10 9 9 11 14 12 11 9 8 10 12 12 15 18 17 15 13 14 13 14 14 16 20 21 19
1 0 0 0 -0 0 6 10 14 10 8 9 12 12 11 10 7 8 8 9 9 10 12 11 13 12 9 9 10 8 10 15 17 20 17 15 15 14 13 15 19 18 19 18
1 1 1 0 0 0 6 11 14 12 14 12 12 12 10 11 11 9 9 10 10 11 13 13 13 12 11 10 8 10 12 16 17 15 13 14 15 15 14 15 16 18 16 16
3 2 2 2 1 2 8 11 12 11 12 11 13 11 11 11 10 10 11 11 10 11 12 13 13 12 12 13 11 12 12 16 15 17 14 14 16 14 13 13 13 14 14 15
4 4 3 3 2 4 9 9 8 10 11 12 13 12 11 10 10 9 9 9 10 11 11 10 10 10 10 11 12 12 12 15 17 19 15 14 18 15 14 13 13 13 15 13
4 4 4 4 3 5 8 9 9 11 13 12 11 10 9 10 10 10 9 9 11 9 8 8 9 10 10 10 11 11 13 14 17 20 17 22 16 13 13 13 12 12 12 12
4 4 4 4 4 5 10 10 10 11 13 12 11 10 10 10 10 10 10 9 9 8 9 12 13 14 13 13 12 12 12 14 18 19 20 17 15 14 14 14 14 13 12 13
4 4 4 4 4 5 10 12 11 11 13 14 13 12 11 12 13 12 10 8 8 9 11 14 17 18 17 16 15 13 12 13 16 18 19 20 16 14 12 13 18 13 12 13
4 4 4 4 4 5 10 11 11 12 14 15 14 14 13 12 13 13 12 11 11 10 14 16 17 19 16 18 18 18 16 17 18 18 20 17 14 13 13 19 18 13 12 13
4 4 4 4 5 5 10 12 11 12 15 15 13 13 14 12 13 14 12 12 12 13 15 16 17 18 17 18 17 18 18 19 19 19 20 22 13 14 16 15 14 13 13 13
5 4 4 4 5 6 8 12 11 11 13 14 12 12 12 12 13 13 13 13 13 13 15 16 17 17 18 18 20 17 18 16 17 17 17 15 14 14 13 13 13 13 13 13
4 4 4 4 5 6 8 12 12 12 14 14 14 14 13 12 12 12 13 13 13 13 13 15 16 17 17 19 19 19 17 15 16 16 17 15 14 14 13 13 13 13 13 13
5 4 4 4 5 6 9 12 12 11 12 15 15 12 14 12 13 13 13 13 13 13 13 15 16 17 16 18 17 18 16 15 16 17 15 15 14 14 13 13 13 13 13 14
5 4 4 4 5 7 10 12 12 12 11 15 15 14 13 13 13 13 13 13 14 15 15 17 17 17 17 18 19 19 16 16 17 17 15 15 15 14 13 14 14 14 14 15
5 5 5 5 6 6 10 13 11 11 11 14 17 14 15 14 13 13 14 14 15 15 16 17 17 16 17 20 20 16 16 15 14 15 15 15 15 14 14 14 14 14 14 15
6 5 6 6 6 10 12 13 11 10 12 14 17 17 14 14 14 14 14 14 15 15 16 17 17 17 17 19 20 16 15 15 15 15 15 16 15 15 15 14 14 14 15 15
6 5 6 6 6 9 12 12 9 11 13 14 19 19 17 15 16 16 15 15 16 16 16 17 17 17 18 20 17 17 16 16 16 16 16 15 16 16 16 16 16 17 18 18
5 6 7 10 12 13 12 8 9 12 14 18 19 21 21 15 16 16 15 16 18 16 17 17 17 17 19 16 16 16 16 16 15 16 16 16 17 17 17 17 17 18 19 19
6 10 13 15 13 9 10 13 14 15 16 16 19 19 19 17 17 17 17 17 18 22 18 17 18 18 15 14 15 14 15 15 16 17 19 18 18 18 17 17 18 19 19 18
13 14 15 13 10 13 16 19 19 18 18 16 18 18 18 16 18 18 16 21 21 24 21 19 20 20 17 15 16 15 13 14 14 15 16 15 16 17 17 18 19 18 18 18
13 13 13 14 15 18 21 23 20 20 20 19 19 17 16 17 16 17 18 20 21 23 20 21 23 19 16 16 17 16 15 14 14 14 14 15 15 16 17 18 17 17 18 18
14 17 19 18 20 22 24 25 24 25 20 20 20 21 18 17 16 18 19 21 21 19 25 23 20 18 16 16 16 16 16 16 16 16 16 15 16 16 16 16 16 17 18 18
19 21 23 22 26 22 20 21 22 19 20 20 19 20 19 18 19 19 23 19 19 27 27 23 21 18 16 16 16 15 15 17 18 19 18 18 18 18 17 17 17 17 18 18
19 21 24 24 21 23 22 23 22 20 18 18 19 20 19 20 20 19 21 24 27 24 23 22 20 17 17 17 16 16 16 17 18 18 18 19 18 18 19 18 18 18 18 18
20 20 23 21 22 26 24 25 23 20 17 19 19 22 23 22 21 23 24 25 25 22 22 19 20 17 17 17 16 16 16 17 17 18 17 18 18 18 18 18 19 19 19 19
16 19 18 18 19 20 21 20 19 17 18 20 21 24 22 21 25 23 21 23 20 20 20 20 18 18 17 17 16 15 15 16 17 17 18 18 18 20 20 19 19 19 19 19

GFSNW_con_lsi_093.txt.gz
Lid_Strength_Index
1 0 -0 -0 -0 2 5 8 14 6 6 12 10 11 10 8 8 7 9 9 10 12 12 13 13 14 12 9 9 12 11 14 17 14 12 12 13 14 15 18 19 19 18 18
1 1 1 0 0 3 7 11 11 7 7 15 12 10 9 8 9 9 9 10 10 10 12 15 12 12 9 9 10 13 12 16 19 17 15 13 14 14 14 15 17 19 21 19
1 1 1 1 1 1 7 11 14 10 9 11 12 12 11 11 8 9 9 10 10 11 12 12 13 12 10 10 10 8 10 15 17 21 16 14 15 14 14 16 20 18 19 18
3 2 1 1 1 1 8 12 14 12 14 12 12 12 11 11 11 10 9 11 12 12 14 14 14 13 12 10 10 11 12 16 18 15 14 14 15 15 14 16 17 19 17 17
4 3 2 2 2 3 9 12 12 11 13 12 13 11 12 11 11 11 11 12 11 12 13 14 15 13 13 14 12 13 12 17 16 18 14 14 15 15 14 14 14 14 15 16
4 4 3 3 3 5 9 10 9 10 11 13 13 12 11 10 10 10 10 10 11 12 11 11 11 11 11 12 14 13 13 16 18 19 16 15 18 16 14 14 13 14 16 14
4 4 4 3 4 6 9 10 10 11 13 12 12 10 10 10 10 11 10 10 11 10 8 9 11 12 11 11 12 12 14 15 18 20 17 22 17 14 13 14 13 13 13 13
4 4 4 4 5 6 10 11 10 12 14 13 12 11 11 11 11 11 10 10 9 9 10 13 14 15 14 14 13 13 13 15 19 20 21 18 17 15 14 15 14 12 13 13
4 4 4 4 5 6 10 11 11 12 14 15 13 13 13 14 14 13 11 9 9 10 13 15 17 19 17 17 15 14 13 14 16 18 20 22 17 14 13 14 19 13 12 13
4 4 4 4 5 6 10 12 11 12 14 15 15 14 14 13 14 14 13 12 11 12 15 16 18 19 17 19 19 18 18 18 19 19 20 18 16 14 13 20 19 14 13 13
4 4 4 4 4 6 10 12 11 11 14 15 13 13 15 14 14 14 13 13 13 14 16 16 18 18 18 19 18 19 19 20 20 20 21 22 14 14 17 16 15 14 14 13
5 4 4 4 4 5 8 12 11 11 13 14 13 12 12 12 13 13 14 14 14 14 16 17 17 17 19 19 20 18 19 17 19 18 18 15 14 15 14 14 14 14 14 13
5 4 4 4 5 6 9 13 13 12 14 15 15 14 13 12 13 12 13 14 13 14 14 15 17 18 18 20 20 20 17 16 17 17 17 16 14 14 13 13 13 13 13 13
5 4 4 4 5 6 9 13 13 12 13 15 15 13 14 13 13 13 13 13 13 14 14 16 17 17 16 18 18 19 17 16 17 18 16 16 15 14 13 14 13 14 14 14
5 5 4 4 5 7 10 13 13 12 12 15 15 14 13 13 13 13 13 14 14 15 16 17 17 17 18 18 19 20 17 17 17 18 16 16 16 15 14 14 14 14 15 16
6 6 5 5 6 6 10 13 11 12 12 15 17 14 15 14 14 14 14 14 15 15 16 17 17 17 17 20 20 17 17 16 15 16 17 16 16 16 15 15 15 15 15 16
6 6 6 6 6 11 12 13 12 10 12 15 17 18 15 15 15 14 14 15 15 15 16 16 17 17 16 18 20 16 16 15 16 16 15 17 16 16 15 15 15 14 16 17
7 6 6 7 7 9 12 12 9 11 13 14 20 20 17 15 16 16 16 16 16 16 16 17 17 17 18 19 16 16 15 15 15 15 15 15 15 15 16 16 17 17 18 19
7 7 7 11 13 14 13 9 10 13 14 18 20 21 21 16 17 16 16 16 18 16 17 17 17 18 20 16 16 16 16 15 15 15 15 16 16 16 16 16 17 17 18 19
7 12 14 16 14 10 11 14 16 17 17 17 19 19 19 17 18 17 17 17 18 22 18 17 19 19 16 15 15 15 15 15 15 17 18 16 16 16 16 16 16 16 18 18
11 15 16 15 11 14 17 18 19 19 20 18 19 19 19 16 18 18 16 21 21 24 20 19 21 20 17 15 16 15 16 15 15 14 15 15 15 15 15 15 16 17 17 17
12 14 14 15 17 20 22 23 20 20 20 20 19 19 18 18 16 17 18 21 22 24 20 22 23 19 17 17 16 16 16 16 15 14 15 15 15 15 16 17 18 17 17 17
13 16 19 19 21 25 26 24 24 26 21 20 20 20 18 18 17 19 20 22 21 20 25 23 21 19 18 18 17 17 18 16 15 15 15 15 16 16 17 18 18 18 18 18
16 18 22 22 26 23 22 22 23 21 21 19 20 20 19 18 19 19 24 20 20 27 26 23 21 19 18 18 17 17 17 17 18 17 16 17 17 18 18 17 17 18 19 18
16 18 21 23 20 23 24 25 23 22 19 19 19 20 19 21 21 19 21 25 27 24 23 21 20 18 18 18 18 18 17 17 18 18 19 19 19 19 19 18 18 18 18 18
17 21 23 21 22 20 21 25 24 21 19 21 19 22 23 23 22 24 23 25 25 22 22 20 20 18 18 18 17 17 17 17 18 18 18 18 18 19 19 18 18 18 18 19
14 18 19 19 18 17 19 19 20 19 19 22 23 25 22 21 25 23 22 23 21 20 21 21 19 18 18 18 18 17 17 17 18 19 19 19 19 21 22 21 19 19 18 18

GFSNW_con_lsi_096.txt.gz
Lid_Strength_Index
1 1 1 -0 -0 1 5 10 13 6 6 11 10 11 10 8 9 8 9 10 11 13 12 13 13 14 12 9 9 13 12 14 17 15 12 12 13 14 15 19 19 19 19 18
1 1 1 1 1 3 8 11 11 7 7 14 13 11 9 9 9 10 10 11 10 11 12 15 14 13 10 9 11 13 12 16 20 18 16 13 14 14 14 15 17 19 22 19
2 2 2 1 1 3 8 12 14 10 10 12 14 13 12 12 9 10 10 11 11 11 13 13 14 13 11 10 10 8 10 15 16 20 16 15 15 15 14 16 20 19 19 18
2 2 2 2 1 3 8 12 14 13 15 12 13 13 12 12 12 10 10 12 12 13 15 14 15 13 12 11 10 11 13 17 17 15 15 14 15 15 15 16 17 19 17 17
3 3 3 2 2 4 9 11 12 12 13 13 13 11 12 12 12 12 12 12 12 12 14 15 15 14 15 15 13 14 13 17 16 18 15 15 15 14 15 14 15 15 16 16
3 3 3 3 3 5 10 11 10 11 12 13 13 13 12 11 11 11 11 11 12 13 12 11 11 11 12 13 14 14 14 16 18 19 17 16 18 16 15 14 14 14 16 15
4 3 3 3 3 6 9 10 11 12 14 13 13 12 11 11 11 12 11 11 12 11 10 11 12 13 12 13 13 13 15 16 18 20 19 23 17 15 14 14 14 13 14 13
4 4 4 3 3 5 10 11 10 12 15 14 14 13 13 13 12 13 12 11 10 10 12 13 15 15 15 15 14 14 14 16 19 21 22 18 18 16 15 16 15 13 14 14
4 4 4 4 3 5 11 12 11 12 14 15 13 14 14 14 15 14 12 11 10 11 14 15 18 19 19 18 17 15 15 15 17 19 21 22 19 15 14 15 19 14 13 13
4 4 4 4 4 6 10 12 12 12 14 15 14 14 14 13 15 15 15 13 12 13 16 17 18 20 18 20 20 19 18 19 19 19 21 18 17 14 14 21 19 14 13 13
5 4 4 4 4 5 10 12 12 12 15 15 14 13 14 14 14 15 13 14 14 15 17 17 18 19 19 20 19 20 19 21 20 20 22 23 15 15 17 16 16 14 14 14
5 4 3 4 4 6 9 12 11 12 13 14 13 13 13 13 13 13 15 14 14 14 16 17 18 18 20 20 21 20 20 18 19 18 18 16 15 15 14 14 14 14 14 13
6 5 3 4 4 6 9 13 13 12 14 14 14 14 14 13 13 12 14 14 13 14 14 16 17 18 18 20 21 21 19 18 18 17 18 16 15 15 14 14 14 14 14 13
7 6 4 4 5 7 9 13 13 12 13 15 15 13 15 13 13 13 13 14 14 14 15 16 17 17 17 19 19 19 18 17 18 19 17 17 16 16 15 14 14 14 14 14
8 7 6 5 5 6 10 12 13 12 12 16 15 14 14 14 13 14 14 14 14 15 16 18 17 17 18 19 19 20 17 17 18 18 16 17 17 16 15 14 14 14 15 16
8 8 7 7 6 7 11 13 12 12 12 16 17 14 16 15 14 14 15 14 15 16 16 17 16 16 16 19 20 16 16 16 15 15 17 16 15 15 16 15 14 14 15 15
8 7 7 8 7 11 12 13 12 10 12 15 17 18 15 15 15 15 15 15 16 16 16 17 17 17 16 18 19 15 15 15 15 15 15 15 15 14 14 14 14 12 14 15
8 7 7 7 9 11 13 13 9 12 14 15 21 20 18 15 16 17 16 16 17 17 17 17 18 17 18 19 16 17 15 15 16 15 15 15 16 15 15 15 15 15 16 16
7 7 8 12 14 16 14 9 11 14 15 19 21 21 21 16 17 16 17 16 18 16 18 18 17 19 20 16 16 16 15 15 15 16 16 15 15 15 16 16 16 15 16 17
6 10 14 16 15 11 12 14 16 18 18 19 20 20 21 18 18 18 18 18 18 22 18 17 19 19 15 15 15 15 15 16 16 17 18 17 17 16 16 16 16 16 17 18
10 14 15 14 12 15 17 19 19 19 20 18 19 20 20 17 20 18 17 21 20 24 21 20 21 20 18 16 16 16 16 17 17 16 15 15 15 15 16 16 16 16 17 18
10 12 13 15 17 19 21 23 21 21 21 20 20 19 18 18 17 18 19 21 22 24 21 22 22 19 17 17 17 17 17 17 17 17 15 15 15 15 15 16 16 17 17 17
12 14 16 17 19 24 23 23 23 26 21 21 20 20 18 18 17 19 20 23 21 21 26 23 21 19 18 18 18 18 18 18 17 17 16 16 17 16 16 17 17 17 18 18
14 16 19 19 24 22 20 20 20 19 21 20 20 20 19 18 19 19 24 20 21 28 25 23 21 19 18 18 18 18 18 18 19 19 17 17 18 19 18 17 18 18 18 18
14 17 19 21 19 23 22 22 20 20 19 19 20 21 19 21 21 19 21 24 26 24 23 20 20 19 19 18 18 18 18 18 18 19 21 22 21 20 20 19 19 19 19 19
14 17 21 21 22 22 22 22 21 19 18 20 19 23 24 23 22 24 23 24 24 22 22 20 21 19 18 18 18 18 18 18 18 19 19 19 20 20 20 20 20 20 20 20
14 15 16 18 19 18 18 18 18 17 18 20 21 24 22 23 27 25 21 21 20 20 20 22 20 17 18 18 18 18 17 18 18 19 19 20 20 21 22 21 21 21 20 21

GFSNW_con_lsi_099.txt.gz
Lid_Strength_Index
1 1 1 1 0 1 6 10 12 6 6 11 12 12 10 8 10 9 10 11 12 13 13 14 14 14 13 10 10 13 12 13 17 15 12 12 12 14 14 18 19 18 18 17
1 1 1 1 1 3 9 12 13 7 6 14 16 12 11 10 10 11 11 11 11 11 13 15 13 13 10 10 11 13 12 15 19 17 15 12 13 13 13 14 16 18 19 17
2 1 1 1 1 2 10 12 14 11 11 13 14 13 13 12 10 11 11 11 11 12 14 13 14 13 11 10 10 8 10 15 16 19 16 14 15 14 14 15 18 17 17 15
2 2 2 2 1 3 9 12 14 13 15 13 14 14 13 13 13 11 11 12 13 13 15 15 15 14 13 11 10 11 12 16 17 15 15 14 14 14 14 16 16 17 16 15
3 3 2 2 2 3 10 12 13 14 14 14 14 12 13 13 12 12 12 13 12 13 14 14 15 14 15 15 13 13 13 16 15 18 14 15 15 14 15 14 14 14 15 15
3 3 3 3 3 5 10 12 11 12 12 14 15 14 13 12 12 11 11 12 13 14 13 12 12 12 12 13 14 14 14 16 18 19 17 16 18 16 15 14 14 14 16 14
3 3 3 3 4 7 10 11 11 13 14 13 13 12 12 12 12 13 12 12 13 11 11 12 13 14 13 13 14 13 15 16 18 20 19 23 17 15 14 14 14 13 14 13
4 4 3 3 4 5 10 12 11 12 15 14 14 13 14 13 13 14 12 11 11 11 13 14 16 16 16 16 15 15 15 16 19 21 22 19 18 16 15 16 16 14 14 13
4 4 4 4 4 6 11 12 12 12 14 15 13 14 14 15 16 15 13 12 11 13 15 16 19 20 19 18 17 15 15 16 17 20 21 22 19 16 14 15 19 15 13 13
4 4 4 4 4 6 10 12 12 13 15 15 14 14 14 14 16 15 16 14 13 14 16 17 19 20 18 20 20 20 19 19 19 19 21 19 17 14 14 20 19 14 13 13
5 4 4 3 4 6 10 12 12 12 15 15 14 13 14 15 15 16 15 15 15 16 17 18 18 19 19 21 20 20 20 21 21 21 22 22 15 15 17 15 15 14 13 13
7 5 4 3 4 6 8 12 12 12 13 13 14 13 13 13 12 13 15 15 15 15 17 18 18 18 21 21 21 20 20 18 20 19 19 16 15 15 15 15 14 14 13 13
7 7 6 4 5 6 9 13 13 13 14 14 15 14 14 13 13 12 14 15 14 15 15 17 17 18 18 20 21 21 19 18 18 17 18 17 16 15 15 15 15 15 14 13
8 7 6 6 6 7 9 12 13 12 14 16 15 13 15 14 13 13 13 14 14 14 15 16 17 18 17 19 19 19 18 17 18 18 16 16 15 15 15 14 14 14 14 13
7 7 7 7 7 7 11 13 13 12 12 16 15 14 15 14 13 13 13 14 15 16 16 18 17 17 18 19 19 20 17 17 17 17 15 16 16 16 14 15 14 13 13 14
7 7 7 7 8 9 12 14 13 13 12 16 17 14 16 16 15 14 15 14 15 15 16 17 17 16 16 19 20 16 17 16 15 15 16 16 15 14 14 14 14 13 13 13
7 7 6 7 8 12 13 14 13 11 13 16 18 18 15 15 15 15 16 16 16 16 17 17 17 17 16 18 18 15 15 15 15 15 16 16 15 14 15 14 14 12 14 14
7 7 6 6 8 11 14 14 10 13 15 16 22 20 18 15 17 17 16 17 17 17 17 18 18 17 18 19 16 17 16 16 16 16 16 15 16 16 16 16 15 16 15 16
7 7 7 11 13 15 15 10 12 15 16 19 20 21 21 16 17 17 17 17 19 17 18 18 17 18 19 16 16 16 15 15 15 16 17 17 17 16 16 16 17 16 16 16
6 9 13 15 14 11 11 15 16 18 18 19 21 20 21 18 18 18 19 19 20 24 19 18 19 18 15 15 15 15 15 15 16 18 19 18 18 17 17 17 17 16 16 17
10 12 14 14 11 15 17 19 19 19 20 19 20 20 20 17 19 18 17 22 21 25 22 21 21 20 18 17 17 16 16 16 16 17 17 16 16 17 16 16 16 16 16 17
9 11 13 14 16 18 21 23 21 20 20 20 21 20 19 19 17 18 18 21 21 23 21 21 21 19 17 17 17 17 17 17 17 17 17 17 15 16 16 16 16 17 17 17
10 13 15 17 18 24 22 22 23 24 20 21 20 20 19 19 18 19 20 21 20 20 26 24 22 19 18 18 18 18 18 18 17 17 17 16 17 16 17 17 17 18 18 18
13 15 18 19 24 22 20 20 20 19 20 19 20 21 20 19 20 20 24 20 21 26 24 24 21 19 18 19 18 18 18 17 18 19 18 17 18 19 19 17 18 19 19 19
12 14 17 19 18 22 22 22 19 19 17 18 20 21 20 22 22 21 23 25 27 25 23 22 20 19 19 18 18 18 17 17 17 18 20 21 21 21 21 20 19 19 19 19
12 13 18 19 23 23 23 21 17 16 16 17 18 21 23 22 22 24 24 25 25 22 23 21 22 21 20 19 18 18 17 17 17 18 18 18 19 20 20 20 20 20 20 20
12 13 14 17 20 20 18 16 15 15 16 17 18 20 20 21 27 26 22 22 19 19 21 22 21 20 19 19 19 18 17 17 17 18 19 19 19 21 22 21 20 20 20 20

GFSNW_con_lsi_105.txt.gz
Lid_Strength_Index
2 1 1 1 1 1 3 2 8 1 1 7 7 10 8 8 7 6 7 7 8 9 10 11 11 11 9 7 7 10 9 11 14 12 8 8 9 11 11 15 16 14 14 15
2 2 2 2 2 2 4 5 5 1 1 10 9 7 8 7 8 8 8 9 8 8 10 11 10 10 8 7 8 9 9 12 15 13 11 9 11 9 10 11 11 15 16 14
2 2 2 2 2 2 3 4 9 5 4 6 7 8 9 9 7 8 8 9 8 9 10 9 11 10 8 7 7 7 7 10 12 15 12 11 12 11 11 11 15 13 13 11
3 3 2 2 2 3 3 5 7 7 9 8 7 7 8 9 10 8 8 9 9 10 11 10 10 9 9 7 7 7 8 12 11 11 10 11 11 11 11 12 12 13 11 11
3 3 3 2 3 3 4 5 6 6 7 8 8 8 9 9 9 8 9 10 9 9 10 10 11 10 9 10 9 9 9 12 11 13 11 11 12 11 11 11 11 11 11 12
3 3 3 3 3 3 5 5 5 7 9 8 8 8 9 9 8 8 8 8 9 9 9 8 7 7 8 8 9 10 10 11 12 14 12 13 15 13 12 11 11 11 13 10
4 4 3 3 4 5 4 5 6 7 10 9 9 9 9 9 9 9 8 8 9 8 6 7 8 8 8 8 9 8 11 12 12 15 13 18 13 11 11 11 11 10 10 9
4 4 4 3 4 5 5 5 5 7 9 9 10 10 10 9 9 10 9 8 7 7 8 10 12 12 12 11 10 10 10 11 14 16 15 13 13 13 12 12 12 10 10 9
5 4 4 3 4 5 5 6 6 6 9 10 10 10 9 10 10 10 10 8 7 8 10 12 15 15 15 15 14 12 11 11 13 14 18 18 14 12 11 11 15 10 10 10
7 6 4 3 4 5 6 6 6 6 9 9 9 10 10 9 10 11 10 10 9 9 11 14 15 15 14 16 16 16 15 14 16 16 16 14 11 11 10 16 14 11 10 9
7 7 6 4 4 5 6 6 7 7 8 8 9 9 9 9 9 11 10 10 10 10 13 13 13 14 13 15 13 14 15 16 16 15 16 18 10 11 13 11 10 9 9 8
7 7 7 6 5 6 7 7 7 8 8 8 9 8 7 8 8 9 9 10 10 10 12 12 12 14 13 14 16 13 16 13 13 13 13 11 10 9 9 9 10 9 9 8
7 7 7 7 6 7 9 8 7 7 8 8 9 9 8 8 9 6 10 9 9 10 9 10 11 14 12 15 14 13 12 11 13 13 11 11 10 9 9 8 9 9 9 8
6 7 7 7 7 7 9 9 9 9 9 11 9 9 9 9 9 8 8 8 9 8 9 10 11 13 11 13 12 13 11 12 13 13 11 11 10 10 9 10 10 10 10 9
5 6 7 7 6 7 8 8 9 10 11 13 12 10 10 10 9 9 9 9 9 9 10 11 12 10 11 11 12 13 11 12 14 13 11 10 10 10 10 10 10 10 10 10
5 6 7 6 6 7 8 10 9 10 9 12 14 12 13 13 12 11 10 10 9 9 10 11 10 10 11 13 14 10 10 9 10 11 10 10 10 10 10 11 10 10 10 10
5 6 7 7 6 7 9 10 10 10 9 12 14 13 13 13 13 13 13 12 11 11 11 12 11 11 12 13 14 11 10 10 10 10 10 12 11 11 11 11 10 10 10 10
5 6 6 6 6 7 9 8 9 9 10 12 14 14 15 13 14 14 13 13 13 13 13 12 13 12 13 15 12 11 10 10 10 10 10 10 10 11 11 11 11 12 12 11
5 6 7 8 8 10 10 9 9 10 11 13 14 15 14 13 14 13 14 14 16 13 15 15 14 14 16 13 12 11 10 11 11 12 11 11 12 12 12 12 12 12 11 11
6 7 10 12 10 9 9 11 13 13 12 13 15 12 15 13 14 14 14 14 15 17 15 15 17 17 13 12 11 10 10 10 11 13 14 13 13 13 12 13 12 12 11 12
9 11 12 10 10 11 12 14 15 14 16 13 14 13 14 13 14 14 13 14 15 18 16 17 17 17 14 13 13 12 11 11 11 11 11 11 12 12 12 12 12 12 12 13
9 10 11 11 13 13 15 15 16 17 16 13 15 15 14 14 13 13 14 15 17 19 16 18 20 15 13 13 14 14 14 14 13 12 12 13 13 13 13 13 12 13 13 13
8 11 13 13 13 17 18 19 17 16 14 15 15 15 13 14 14 14 15 17 18 16 18 19 16 13 13 14 15 15 15 15 15 14 13 13 14 13 13 13 13 12 13 13
11 13 14 14 15 16 14 14 12 12 13 14 13 14 14 13 15 14 17 15 16 18 21 18 13 12 13 13 14 15 15 15 16 15 14 15 15 14 14 13 13 13 14 14
10 11 13 14 12 12 12 12 13 13 12 13 13 13 13 14 14 15 16 18 19 17 16 12 11 13 14 15 15 15 15 14 15 14 15 16 16 16 15 14 14 14 14 16
9 10 13 12 12 11 12 12 11 10 10 11 11 12 14 14 14 16 17 16 17 13 12 11 12 13 14 14 15 15 15 15 15 15 14 14 15 15 15 15 15 15 15 16
10 11 8 8 8 9 8 8 9 8 9 10 10 13 13 13 15 16 13 15 12 10 10 11 12 13 13 13 14 15 15 15 14 15 15 15 15 15 16 16 15 16 16 16

GFSNW_con_lsi_108.txt.gz
Lid_Strength_Index
1 1 1 1 1 1 4 3 9 2 2 9 8 11 8 8 7 6 7 8 9 10 10 11 11 12 10 7 8 10 10 12 16 13 9 9 10 12 12 17 18 16 17 17
2 2 1 1 2 2 4 6 6 1 2 12 11 8 9 8 8 8 8 9 8 8 10 12 11 10 8 8 9 11 10 13 18 17 13 11 12 11 11 12 14 17 19 17
3 2 2 1 2 2 3 5 10 6 5 7 9 9 9 10 8 8 8 9 8 10 11 10 11 10 8 7 7 7 8 12 14 18 15 12 14 12 11 13 17 16 15 14
3 3 3 2 2 2 3 5 8 8 11 9 8 8 8 9 10 8 8 9 9 10 12 11 11 10 9 8 7 9 10 14 14 12 11 12 13 13 12 14 14 17 15 14
4 3 3 3 3 3 4 7 8 8 9 9 8 9 9 9 9 9 10 10 9 9 11 11 12 11 11 12 10 11 10 14 14 17 13 13 15 13 13 13 13 13 13 14
4 4 3 3 4 3 5 5 6 8 9 9 10 10 10 9 8 8 8 9 10 10 9 9 9 9 9 10 12 12 12 14 16 18 14 15 18 15 14 13 13 13 15 13
4 4 3 3 4 5 5 6 7 9 11 11 11 10 10 10 10 10 9 9 10 9 8 8 10 10 10 10 11 11 13 14 16 19 17 23 15 13 13 14 13 12 12 12
6 4 3 3 4 5 6 6 7 9 11 11 11 10 11 10 10 11 10 9 9 9 10 13 14 14 15 13 12 12 12 14 18 20 20 17 16 15 15 15 15 12 12 12
7 6 4 3 4 5 6 7 7 8 11 12 10 11 11 13 13 12 11 10 9 10 12 14 18 19 18 18 16 14 13 13 17 18 20 22 17 14 12 13 18 13 12 12
7 7 6 4 4 5 7 7 7 8 11 10 11 12 12 11 12 13 12 12 11 11 14 16 18 18 16 19 19 19 18 17 18 18 19 16 14 13 12 19 17 13 12 12
6 7 7 6 6 6 7 7 7 9 10 10 10 9 11 11 11 14 12 12 12 13 15 17 16 18 17 18 16 17 17 19 19 18 19 20 12 13 16 14 13 12 12 11
6 6 7 7 6 7 7 10 8 8 10 9 9 9 9 10 10 10 11 12 12 12 14 15 16 17 16 17 20 15 18 15 17 16 16 13 12 12 11 12 12 12 12 11
6 6 6 7 6 7 8 10 10 10 11 10 10 11 10 9 9 8 11 11 10 11 11 13 14 16 15 18 17 17 15 14 16 16 15 13 13 11 11 11 12 11 11 11
5 6 6 7 6 6 8 10 10 11 12 15 13 11 12 11 10 10 9 10 10 10 11 12 13 15 13 16 15 16 14 15 15 16 13 13 12 12 12 12 11 12 12 12
4 5 6 6 6 6 7 8 9 10 12 15 14 12 13 12 12 12 12 12 11 12 13 14 14 13 14 14 15 15 13 13 16 17 14 14 14 13 13 13 13 12 12 13
4 5 6 6 6 6 9 11 10 10 10 14 16 13 14 14 13 13 13 13 13 13 13 15 13 12 14 17 18 13 12 12 12 13 13 13 14 13 13 13 13 12 12 12
5 5 6 7 6 7 10 11 11 10 10 13 16 15 14 13 14 13 14 13 14 14 14 15 15 15 15 17 17 14 13 12 12 11 13 14 14 14 13 13 13 12 13 12
4 5 6 7 6 7 10 10 9 10 12 13 16 16 16 14 15 16 14 15 15 15 16 14 15 16 16 18 15 14 13 12 13 13 12 13 14 14 14 13 13 14 14 13
4 6 7 8 9 10 11 9 10 11 12 15 16 17 17 15 15 15 16 15 16 14 16 16 16 17 18 16 15 14 13 13 13 14 14 13 14 14 14 14 14 14 14 13
7 8 10 13 11 9 9 12 13 14 13 14 16 15 17 15 15 16 16 16 16 17 17 16 17 17 14 13 13 13 13 12 13 16 16 16 16 15 15 14 14 14 14 13
8 11 12 10 9 11 14 15 15 14 15 15 15 16 16 14 16 16 15 18 16 19 19 19 20 18 15 14 14 14 14 14 13 14 14 14 14 14 14 14 14 14 14 14
8 10 10 10 12 13 15 16 16 16 17 16 17 17 16 16 15 16 16 18 18 20 18 19 21 17 14 15 15 14 15 15 15 15 15 15 14 14 14 14 14 14 14 14
8 11 13 13 13 16 17 19 17 17 15 16 17 18 15 16 15 16 17 20 19 18 23 21 18 16 14 14 15 16 16 17 17 16 16 15 15 14 15 15 14 15 14 14
11 13 15 15 16 16 15 15 14 14 14 14 14 15 14 14 15 14 18 16 17 22 21 21 17 14 15 15 15 16 16 16 17 18 17 16 17 17 17 16 15 16 16 16
11 12 16 15 14 14 14 14 14 14 12 14 15 15 14 14 14 14 15 19 20 20 19 17 14 13 14 15 16 16 16 16 15 15 16 18 17 18 17 16 15 15 16 16
10 12 14 13 14 13 14 14 14 12 11 12 12 14 15 15 15 15 18 18 19 16 13 12 12 13 13 13 15 14 14 15 15 15 15 15 15 15 16 15 16 16 16 16
10 12 10 11 13 12 11 11 11 9 11 13 13 13 14 12 13 17 15 17 14 11 12 11 10 12 12 12 13 14 15 15 15 14 14 15 15 17 18 17 16 16 15 16